Flag for Jamaica Weather past 2 weeks in Montego Bay, Jamaica

Now
79 °F

Sprinkles. Broken clouds.


Feels Like: 82 °F
Forecast: 75 / 83 °F
Wind: 14 mph from East

Location: Montego Bay / Sangster

Current Time: Apr 1, 2015 at 12:37:04 PM

Latest Report: Apr 1, 2015 at 12:00 PM


Visibility: N/A

Pressure: 30.01 "Hg

Humidity: 89%

Dew point: 75 °F

Location of Montego BayLocation

Historic Weather in Montego Bay — Graph

°F

Montego Bay temperature yesterday

Maximum temperature yesterday: 82 °F (at 11:00 AM)
Minimum temperature yesterday: 72 °F (at 12:00 AM)
Average temperature yesterday: 76 °F

Past Weeks' High & Low Weather Summary

 TemperatureHumidityPressure
High86 °F (Mar 27, 2:00 PM)100% (Mar 26, 7:00 PM)30.09 "Hg (Mar 26, 7:00 PM)
Low72 °F (Mar 30, 10:45 PM)62% (Mar 19, 9:00 AM)29.92 "Hg (Mar 18, 2:00 PM)
Average79 °F80%30.00 "Hg
* Reported Mar 17 11:00 AM — Apr 1 11:00 AM, Montego Bay, Weather by CustomWeather, © 2015

Note: Actual official high and low records may vary slightly from our data, if they occured in-between our weather recording intervals... More about our weather records

Advertising

Montego Bay weather history for previous 24 hours

 ConditionsComfort  
Time TempWeatherWind HumidityBarometerVisibility
11:00 AM
Wed, Apr 1
81 °FPartly sunny.15 mph74%30.04 "HgN/A
10:00 AM81 °FPartly sunny.13 mph79%30.04 "HgN/A
9:00 AM79 °FBroken clouds.9 mph84%30.04 "HgN/A
8:00 AM77 °FSprinkles. Scattered clouds.9 mph83%30.01 "HgN/A
7:00 AM77 °FPassing clouds.8 mph83%30.01 "HgN/A
6:00 AM75 °FPassing clouds.3 mph83%29.98 "HgN/A
5:00 AM75 °FPassing clouds.3 mph83%29.92 "HgN/A
4:00 AM77 °FPassing clouds.9 mph79%29.95 "HgN/A
2:00 AM75 °FPassing clouds.5 mph89%29.95 "HgN/A
1:00 AM75 °FPassing clouds.8 mph83%29.98 "HgN/A
12:00 AM77 °FPassing clouds.7 mph83%30.01 "HgN/A
11:00 PM
Tue, Mar 31
77 °FPassing clouds.9 mph83%30.01 "HgN/A
10:00 PM77 °FPassing clouds.7 mph79%30.01 "HgN/A
9:00 PM77 °FPassing clouds.8 mph79%30.01 "HgN/A
8:00 PM77 °FPassing clouds.8 mph74%30.01 "HgN/A
7:00 PM77 °FPassing clouds.3 mph74%29.98 "HgN/A
6:00 PM77 °FPartly sunny.2 mph79%29.98 "HgN/A
5:00 PM77 °FPartly sunny.9 mph79%29.95 "HgN/A
4:00 PM77 °FPartly sunny.8 mph74%29.95 "HgN/A
3:00 PM77 °FBroken clouds.14 mph83%29.98 "HgN/A
2:00 PM77 °FScattered clouds.15 mph83%29.98 "HgN/A
1:00 PM79 °FScattered clouds.15 mph84%30.01 "HgN/A
12:00 PM77 °FScattered clouds.17 mph89%30.04 "HgN/A
Weather by CustomWeather, © 2015

See weather overviewHow to use our weather pages